Weather in Kazalinsk

Kazakhstan     45°45′50″N   62°06′15″E
temp.,
°C
wind,
m/s
gust,
m/s
humid.,
%
clouds,
%
prec.,
mm/h
press.,
hPa
HPBL,
m
9 may, sun
sun923:00+18w610575 0.0 1013346
02:00+17nnw5104689 0.0 1013357
05:00+15nw611515 0.0 1014355
08:00+17nw912490 0.0 1015943
11:00+21nnw911300 0.0 10151665
14:00+24nw89240 0.0 10152188
17:00+24nw78240 0.0 10152252
20:00+21wnw57310 0.0 1015180
10 may, mon
mon1023:00+18w47470 0.0 1015169
02:00+16w47560 0.0 1015146
05:00+15wnw34635 0.0 101563
08:00+20nnw34410 0.0 1016265
11:00+25n45234 0.0 10152136
14:00+27nnw66193 0.0 10152541
17:00+27nnw77180 0.0 10142223
20:00+24nw58240 0.0 1015241
11 may, tue
tue1123:00+20n36400 0.0 1017121
02:00+18nne47520 0.0 1018167
05:00+15nne48650 0.0 1018266
08:00+16n68560 0.0 1020706
11:00+20n77445 0.0 10211231
14:00+23nne883614 0.0 10201837
17:00+23ne79352 0.0 10201925
20:00+22ne58371 0.0 1020343
12 may, wed
wed1223:00+20ne49455 0.0 1021226
02:00+18ne510475 0.0 1021229
05:00+16ene6123811 0.0 1023306
08:00+18ene811335 0.0 1024575
11:00+22ene89215 0.0 10241373
14:00+25ene771419 0.0 10241752
17:00+26ene781141 0.0 10231978
20:00+23ene591640 0.0 1022191
13 may, thu
thu1323:00+20ne5112191 0.0 1022238
02:00+17ne510310 0.0 1022196
05:00+16ne47340 0.0 1022113
08:00+20ne68260 0.0 1022497
11:00+24ne78200 0.0 10221850
14:00+27ne88155 0.0 10212271
17:00+27ne89150 0.0 10202561
20:00+24ne58220 0.0 1020179